Location: Walnut Hills Mobile Home Park
(34.0445°N, 117.8184°W)
Time: 04:07:50
(UTC+00:00)

ATLAS 2AS CENTAUR R/B - Pass Details

Date: 17 December 2025
Orbit: 1049 x 1162 km, 63.7° (Epoch: 21 January)

Event Time Altitude Azimuth Distance (km) Brightness Sun altitude
Exits shadow 13:53:23 13° 273° (W) 2,733 4.2 -11.7°
Maximum altitude 13:57:36 22° 315° (NW) 2,199 3.8 -10.9°
Drops below altitude 10° 14:02:43 10° 4° (N) 2,912 4.8 -9.9°
Sets 14:06:06 0° 19° (NNE) 3,853 5.6 -9.2°
